Location: York
(31.8935°S, 116.7682°E)
Time: 18:10:42
(UTC+08:00)

DX 1 - Pass Details

Date: 31 July 2021
Orbit: 618 x 631 km, 98.4° (Epoch: 15 September)

Event Time Altitude Azimuth Distance (km) Brightness Sun altitude
Rises 18:54:35 0° 21° (NNE) 2,891 ? -16.7°
Reaches altitude 10° 18:56:46 10° 24° (NNE) 1,991 ? -17.2°
Maximum altitude 19:01:03 65° 105° (ESE) 693 ? -18.1°
Drops below altitude 10° 19:05:23 10° 186° (S) 2,012 ? -19.0°
Sets 19:07:36 0° 188° (S) 2,925 ? -19.5°
